Location: Newark
(45.4422°N, 16.2769°E)
Time: 05:33:39
(UTC+00:00)

Explorer 7 - Pass Details

Date: 29 January 2021
Orbit: 484 x 677 km, 50.3° (Epoch: 05 March)

Event Time Altitude Azimuth Distance (km) Brightness Sun altitude
Exits shadow 04:56:47 23° 309° (NW) 1,122 7.9 -14.6°
Maximum altitude 04:58:46 41° 6° (N) 764 7.5 -14.2°
Drops below altitude 10° 05:02:40 10° 78° (ENE) 1,810 10.6 -13.5°
Sets 05:05:04 0° 86° (E) 2,739 12.0 -13.1°
